When you browse on this site, cookies collect data to enhance your experience and personalize the content and advertising you see.
Visit our Privacy Policy to learn more. By continuing to use the site, you agree to this use of cookies and data.
  • In Hungary
  • List of Countries
  • For 7 days
  • Water Temperature
  • Satellite Maps
  • Weather Map
  • News
  • Weather Widgets
  • user-avatar
    Login

    Hourly Weather Hongzhou

    Today, 10 December, Monday

    Time Temperature Precipitation Wind Pressure Humidity
    00:00 -1°C° 0 mm 2 mps 723 mmHg 77%
    01:00 -1°C° 0 mm 2 mps 723 mmHg 73%
    02:00 -1°C° 0.1 mm 2 mps 723 mmHg 75%
    03:00 -1°C° 0.1 mm 2 mps 723 mmHg 77%
    04:00 +1°C° 0.1 mm 1 mps 723 mmHg 79%
    05:00 +1°C° 0 mm 1 mps 723 mmHg 80%
    06:00 +2°C° 0 mm 1 mps 723 mmHg 81%
    07:00 +2°C° 0 mm 1 mps 723 mmHg 82%
    08:00 +2°C° 0.1 mm 1 mps 723 mmHg 82%
    09:00 +2°C° 0.1 mm 1 mps 723 mmHg 82%
    10:00 +3°C° 0.1 mm 1 mps 723 mmHg 82%
    11:00 +3°C° 0.1 mm 1 mps 723 mmHg 84%
    12:00 +3°C° 0.1 mm 1 mps 722 mmHg 85%
    13:00 +3°C° 0.1 mm 1 mps 722 mmHg 87%
    14:00 +3°C° 0.2 mm 1 mps 722 mmHg 88%
    15:00 +3°C° 0.2 mm 1 mps 722 mmHg 89%
    16:00 +3°C° 0.2 mm 1 mps 722 mmHg 90%
    17:00 +3°C° 0.1 mm 1 mps 722 mmHg 91%
    18:00 +3°C° 0.1 mm 1 mps 722 mmHg 91%
    19:00 +3°C° 0.1 mm 1 mps 723 mmHg 92%
    20:00 +2°C° 0.1 mm 2 mps 723 mmHg 92%
    21:00 +2°C° 0.1 mm 2 mps 723 mmHg 92%
    22:00 +3°C° 0.1 mm 2 mps 724 mmHg 93%
    23:00 +3°C° 0.2 mm 2 mps 724 mmHg 93%

    Tomorrow, 11 December, Tuesday

    Time Temperature Precipitation Wind Pressure Humidity
    00:00 +3°C° 0.2 mm 2 mps 724 mmHg 93%
    01:00 +3°C° 0.2 mm 2 mps 724 mmHg 93%
    02:00 +2°C° 0.5 mm 2 mps 724 mmHg 93%
    03:00 +2°C° 0.5 mm 2 mps 724 mmHg 93%
    04:00 +2°C° 0.5 mm 2 mps 724 mmHg 94%
    05:00 +2°C° 0.4 mm 2 mps 724 mmHg 93%
    06:00 +2°C° 0.4 mm 2 mps 725 mmHg 93%
    07:00 +2°C° 0.4 mm 2 mps 725 mmHg 93%
    08:00 +2°C° 0.2 mm 2 mps 725 mmHg 93%
    09:00 +2°C° 0.2 mm 2 mps 726 mmHg 92%
    10:00 +3°C° 0.2 mm 2 mps 726 mmHg 91%
    11:00 +3°C° 0 mm 2 mps 726 mmHg 89%
    12:00 +4°C° 0 mm 2 mps 725 mmHg 87%
    13:00 +5°C° 0 mm 2 mps 725 mmHg 85%
    14:00 +4°C° 0 mm 2 mps 725 mmHg 85%
    15:00 +4°C° 0 mm 2 mps 725 mmHg 86%
    16:00 +4°C° 0 mm 2 mps 725 mmHg 87%
    17:00 +4°C° 0 mm 2 mps 725 mmHg 88%
    18:00 +3°C° 0 mm 2 mps 725 mmHg 89%
    19:00 +2°C° 0 mm 2 mps 726 mmHg 91%
    20:00 +2°C° 0 mm 2 mps 726 mmHg 91%
    21:00 +2°C° 0 mm 2 mps 726 mmHg 91%
    22:00 +2°C° 0 mm 2 mps 727 mmHg 91%
    23:00 +2°C° 0.1 mm 2 mps 727 mmHg 89%

    Day after tomorrow, 12 December, Wednesday

    Time Temperature Precipitation Wind Pressure Humidity
    00:00 +2°C° 0.1 mm 2 mps 726 mmHg 88%
    01:00 +2°C° 0.1 mm 2 mps 726 mmHg 87%
    02:00 +2°C° 0.2 mm 2 mps 726 mmHg 87%
    03:00 +2°C° 0.2 mm 2 mps 726 mmHg 88%
    04:00 +2°C° 0.2 mm 2 mps 725 mmHg 88%
    05:00 +2°C° 0.4 mm 2 mps 726 mmHg 88%
    06:00 +2°C° 0.4 mm 2 mps 726 mmHg 89%
    07:00 +2°C° 0.4 mm 2 mps 726 mmHg 90%
    08:00 +3°C° 0.7 mm 2 mps 727 mmHg 89%
    09:00 +3°C° 0.7 mm 2 mps 727 mmHg 88%
    10:00 +3°C° 0.7 mm 2 mps 727 mmHg 87%
    11:00 +4°C° 0.5 mm 2 mps 727 mmHg 87%
    12:00 +4°C° 0.5 mm 2 mps 726 mmHg 86%
    13:00 +4°C° 0.5 mm 2 mps 725 mmHg 86%
    14:00 +4°C° 0.3 mm 2 mps 725 mmHg 87%
    15:00 +4°C° 0.3 mm 2 mps 725 mmHg 88%
    16:00 +4°C° 0.3 mm 2 mps 725 mmHg 89%
    17:00 +4°C° 0.2 mm 2 mps 725 mmHg 89%
    18:00 +3°C° 0.2 mm 2 mps 725 mmHg 90%
    19:00 +3°C° 0.2 mm 2 mps 726 mmHg 91%
    20:00 +3°C° 0.2 mm 2 mps 726 mmHg 91%
    21:00 +3°C° 0.2 mm 2 mps 726 mmHg 91%
    22:00 +3°C° 0.2 mm 2 mps 726 mmHg 91%
    23:00 +3°C° 0.1 mm 2 mps 726 mmHg 92%

    13 December, Thursday

    Time Temperature Precipitation Wind Pressure Humidity
    00:00 +3°C° 0.1 mm 2 mps 725 mmHg 92%
    01:00 +3°C° 0.1 mm 1 mps 725 mmHg 92%
    02:00 +3°C° 0.1 mm 1 mps 725 mmHg 92%
    03:00 +2°C° 0.1 mm 2 mps 724 mmHg 93%
    04:00 +2°C° 0.1 mm 2 mps 724 mmHg 93%
    05:00 +4°C° 0 mm 1 mps 724 mmHg 93%
    06:00 +4°C° 0 mm 1 mps 725 mmHg 93%
    07:00 +4°C° 0 mm 1 mps 725 mmHg 93%
    08:00 +5°C° 0 mm 1 mps 725 mmHg 90%
    09:00 +6°C° 0 mm 1 mps 725 mmHg 88%
    10:00 +7°C° 0 mm 1 mps 726 mmHg 86%
    11:00 +7°C° 0 mm 1 mps 725 mmHg 86%
    12:00 +8°C° 0 mm 1 mps 724 mmHg 86%
    13:00 +8°C° 0 mm 1 mps 723 mmHg 86%
    14:00 +8°C° 0 mm 1 mps 723 mmHg 87%
    15:00 +8°C° 0 mm 1 mps 723 mmHg 89%
    16:00 +8°C° 0 mm 1 mps 723 mmHg 90%
    17:00 +7°C° 0 mm 1 mps 723 mmHg 91%
    18:00 +7°C° 0 mm 1 mps 723 mmHg 92%
    19:00 +7°C° 0 mm 1 mps 724 mmHg 93%
    20:00 +6°C° 0 mm 1 mps 724 mmHg 94%
    21:00 +6°C° 0 mm 1 mps 724 mmHg 94%
    22:00 +6°C° 0 mm 1 mps 724 mmHg 94%
    23:00 +6°C° 0 mm 1 mps 724 mmHg 94%

    14 December, Friday

    Time Temperature Precipitation Wind Pressure Humidity
    00:00 +7°C° 0 mm 1 mps 724 mmHg 94%
    01:00 +7°C° 0 mm 1 mps 724 mmHg 94%
    02:00 +7°C° 0.1 mm 1 mps 723 mmHg 94%
    03:00 +7°C° 0.1 mm 1 mps 723 mmHg 94%
    04:00 +7°C° 0.1 mm 1 mps 723 mmHg 94%
    05:00 +7°C° 0.1 mm 1 mps 724 mmHg 94%
    06:00 +7°C° 0.1 mm 1 mps 724 mmHg 94%
    07:00 +7°C° 0.1 mm 1 mps 724 mmHg 94%
    08:00 +7°C° 0.1 mm 1 mps 725 mmHg 93%
    09:00 +8°C° 0.1 mm 1 mps 725 mmHg 92%
    10:00 +8°C° 0.1 mm 1 mps 725 mmHg 91%
    11:00 +9°C° 0.2 mm 1 mps 725 mmHg 90%
    12:00 +10°C° 0.2 mm 1 mps 724 mmHg 90%
    13:00 +10°C° 0.2 mm 1 mps 723 mmHg 89%
    14:00 +10°C° 0.2 mm 1 mps 723 mmHg 91%
    15:00 +10°C° 0.2 mm 1 mps 723 mmHg 92%
    16:00 +9°C° 0.2 mm 1 mps 722 mmHg 94%
    17:00 +9°C° 0.1 mm 1 mps 723 mmHg 94%
    18:00 +9°C° 0.1 mm 1 mps 723 mmHg 95%
    19:00 +9°C° 0.1 mm 1 mps 723 mmHg 95%
    20:00 +9°C° 0.1 mm 1 mps 723 mmHg 95%
    21:00 +9°C° 0.1 mm 1 mps 723 mmHg 95%
    22:00 +9°C° 0.1 mm 1 mps 723 mmHg 95%
    23:00 +9°C° 0.2 mm 1 mps 723 mmHg 95%

    15 December, Saturday

    Time Temperature Precipitation Wind Pressure Humidity
    00:00 +9°C° 0.2 mm 1 mps 723 mmHg 95%
    01:00 +9°C° 0.2 mm 1 mps 723 mmHg 95%
    02:00 +9°C° 0.2 mm 1 mps 723 mmHg 95%
    03:00 +9°C° 0.2 mm 1 mps 722 mmHg 95%
    04:00 +9°C° 0.2 mm 1 mps 722 mmHg 95%
    05:00 +9°C° 0.1 mm 1 mps 722 mmHg 95%
    06:00 +9°C° 0.1 mm 1 mps 723 mmHg 95%
    07:00 +9°C° 0.1 mm 1 mps 723 mmHg 95%
    08:00 +10°C° 0.1 mm 1 mps 723 mmHg 95%
    09:00 +10°C° 0.1 mm 1 mps 723 mmHg 94%
    10:00 +10°C° 0.1 mm 1 mps 724 mmHg 94%
    11:00 +10°C° 0.2 mm 1 mps 723 mmHg 94%
    12:00 +11°C° 0.2 mm 1 mps 723 mmHg 94%
    13:00 +11°C° 0.2 mm 1 mps 722 mmHg 94%
    14:00 +11°C° 0.1 mm 1 mps 722 mmHg 95%
    15:00 +11°C° 0.1 mm 1 mps 722 mmHg 95%
    16:00 +11°C° 0.1 mm 1 mps 722 mmHg 95%
    17:00 +10°C° 0.2 mm 1 mps 722 mmHg 95%
    18:00 +10°C° 0.2 mm 1 mps 722 mmHg 96%
    19:00 +10°C° 0.2 mm 1 mps 723 mmHg 96%
    20:00 +10°C° 0.2 mm 1 mps 723 mmHg 96%
    21:00 +10°C° 0.2 mm 1 mps 723 mmHg 96%
    22:00 +10°C° 0.2 mm 1 mps 723 mmHg 96%
    23:00 +10°C° 0.2 mm 1 mps 723 mmHg 96%
    Show more